Content
SEND FEEDBACK

Daily
Averages
Monthly
Summary
United States of America

ACHANG BAY, GUAM


Home > North America > United States > Guam
Elevation: 30 feet     Latitude: 13 16N     Longitude: 144 45E

WEATHER
 
SELECT A DAY
Number of Records: 342,764;   Date Range: 1/1/95 - 9/22/14
 
SHARE

PRINT THIS DATA

[ ← Previous Day ]
WEATHER ALMANAC - AUGUST 15, 2013
[ Next Day → ]
[ °C ]   °F
Weather ElementAverageHighLow
Temperature78.4 °F86 °F (12:58 pm)73.4 °F (8:54 pm)
Dewpoint74.1 °F77.4 °F (11:55 am)71.6 °F (8:43 pm)
Humidity87.2 %100 % (8:32 pm)70 % (12:58 pm)
Barometer29.83 in29.87 in (8:41 pm)29.76 in (3:30 pm)
Wind Speed7.7 mph25.3 mph (8:24 pm)
Wind Gust31.1 mph (8:24 pm)
Weather ElementAverage
Visibility7.6 mi
Wind DirectionESE (102.3 °)

Weather ElementTotal
Precipitation0.49 in
Cooling Degree Days14.7 (Base 65)
Growing Degree Days29.7 (Base 50)
Averaged from 61 records on August 15, 2013
WEATHER CONDITIONS BREAKOUT
WIND DIRECTION BREAKOUT
WEATHER BY HOUR - AUGUST 15, 2013
[ °C ]   °F
Local TimeTemperatureDewpointHumidityBarometerVisibilityWind DirectionWind SpeedGust SpeedPrecipitationEventsConditions
1:55 AM76.5 °F73.9 °F92 %29.81 in10.0 miCalmClear
2:55 AM78.1 °F74.7 °F89 %29.79 in10.0 miCalmPartly Cloudy
3:55 AM76.8 °F74.3 °F92 %29.79 in10.0 miCalmClear
4:55 AM77.9 °F73.8 °F87 %29.80 in10.0 miCalmClear
5:55 AM75.4 °F73.2 °F93 %29.80 in10.0 miCalmClear
6:55 AM77.2 °F74.3 °F91 %29.82 in10.0 miCalmClear
7:55 AM82.4 °F75.2 °F79 %29.83 in10.0 miSSE (150°)4.6 mphPartly Cloudy
8:55 AM83.3 °F74.5 °F75 %29.83 in10.0 miESE (110°)4.6 mphClear
9:55 AM84.4 °F75.2 °F74 %29.84 in10.0 miESE (120°)8.1 mphClear
10:55 AM84.6 °F74.8 °F72 %29.83 in10.0 miVariable4.6 mphMostly Cloudy
11:55 AM84.9 °F77.4 °F78 %29.81 in10.0 miEast (100°)5.8 mphMostly Cloudy
12:55 PM84.6 °F76.1 °F76 %29.78 in10.0 miESE (110°)6.9 mphMostly Cloudy
12:58 PM86.0 °F75.2 °F70 %29.82 in10.0 miSE (130°)5.8 mphTornadoFunnel Cloud
1:15 PM86.0 °F75.2 °F70 %29.82 in10.0 miSouth (170°)2.3 mphMostly Cloudy
1:55 PM85.8 °F75.6 °F71 %29.78 in10.0 miNE (40°)3.5 mphScattered Clouds
2:00 PM86.0 °F75.2 °F70 %29.78 in10.0 miVariable6.9 mphMostly Cloudy
2:55 PM82.8 °F75.0 °F77 %29.77 in10.0 miWest (280°)3.5 mphMostly Cloudy
3:00 PM84.2 °F75.2 °F74 %29.77 in10.0 miWest (270°)5.8 mphScattered Clouds
3:30 PM84.2 °F75.2 °F74 %29.76 in10.0 miESE (110°)12.7 mph20.7 mphMostly Cloudy
3:37 PM82.4 °F75.2 °F79 %29.76 in10.0 miSouth (190°)9.2 mph20.7 mphRainLight Rain
3:52 PM80.6 °F77.0 °F89 %29.76 in5.0 miSW (230°)4.6 mphRainLight Rain
3:55 PM79.7 °F75.4 °F87 %29.76 in10.0 miSW (230°)4.6 mph0.03 inLight Drizzle
3:57 PM78.8 °F75.2 °F89 %29.76 in10.0 miSW (230°)3.5 mphScattered Clouds
4:55 PM82.2 °F77.2 °F85 %29.77 in10.0 miWest (280°)4.6 mph0.00 inScattered Clouds
5:21 PM82.4 °F75.2 °F79 %29.78 in10.0 miNE (40°)5.8 mphRainLight Rain
5:31 PM82.4 °F75.2 °F79 %29.78 in10.0 miNNE (20°)5.8 mphMostly Cloudy
5:55 PM82.6 °F74.5 °F76 %29.78 in10.0 miNorth (360°)5.8 mph0.00 inPartly Cloudy
6:55 PM81.9 °F73.8 °F76 %29.81 in10.0 miNE (40°)3.5 mphScattered Clouds
7:55 PM79.7 °F76.8 °F91 %29.83 in10.0 miCalmClear
8:16 PM78.8 °F75.2 °F89 %29.84 in10.0 miEast (100°)20.7 mph25.3 mphScattered Clouds
8:18 PM78.8 °F75.2 °F89 %29.84 in10.0 miSE (130°)21.9 mph28.8 mphMostly Cloudy
8:24 PM77.0 °F75.2 °F94 %29.85 in9.0 miESE (120°)25.3 mph31.1 mphMostly Cloudy
8:26 PM77.0 °F75.2 °F94 %29.85 in8.0 miESE (120°)19.6 mph31.1 mphRainLight Rain
8:27 PM77.0 °F75.2 °F94 %29.85 in7.0 miSE (130°)17.3 mph31.1 mphRainLight Rain
8:32 PM75.2 °F75.2 °F100 %29.86 in5.0 miESE (120°)18.4 mph31.1 mphRainLight Rain
8:33 PM75.2 °F73.4 °F94 %29.86 in4.0 miSE (130°)20.7 mph31.1 mphRain-ThunderstormLight Rain
8:34 PM75.2 °F73.4 °F94 %29.86 in4.0 miESE (120°)19.6 mph26.5 mphRain-ThunderstormLight Rain
8:38 PM75.2 °F73.4 °F94 %29.86 in2.5 miSE (130°)18.4 mph26.5 mphRain-ThunderstormRain
8:39 PM75.2 °F73.4 °F94 %29.86 in2.0 miSE (130°)19.6 mph25.3 mphRain-ThunderstormRain
8:40 PM75.2 °F73.4 °F94 %29.86 in2.0 miSE (130°)19.6 mph25.3 mphRain-ThunderstormRain
8:41 PM75.2 °F73.4 °F94 %29.87 in1.8 miSE (130°)16.1 mph25.3 mphRain-ThunderstormHeavy Rain
8:43 PM75.2 °F71.6 °F89 %29.87 in2.0 miSE (140°)15.0 mphRain-ThunderstormRain
8:45 PM75.2 °F71.6 °F89 %29.87 in2.0 miSE (140°)13.8 mphRain-ThunderstormRain
8:47 PM75.2 °F73.4 °F94 %29.87 in2.5 miSE (130°)12.7 mphRain-ThunderstormRain
8:50 PM75.2 °F73.4 °F94 %29.87 in3.0 miSE (130°)13.8 mphRainRain
8:51 PM75.2 °F73.4 °F94 %29.87 in3.0 miSE (130°)11.5 mphRainRain
8:54 PM73.4 °F71.6 °F94 %29.87 in3.0 miSE (130°)10.4 mphRainRain
8:55 PM74.1 °F72.3 °F94 %29.87 in3.0 miSE (130°)9.2 mph0.17 inRainRain
9:01 PM73.4 °F71.6 °F94 %29.87 in2.5 miSSE (150°)9.2 mphRainRain
9:03 PM73.4 °F71.6 °F94 %29.87 in3.0 miSSE (160°)6.9 mphRainLight Rain
9:04 PM73.4 °F71.6 °F94 %29.87 in3.0 miSSE (160°)6.9 mphRainLight Rain
9:12 PM73.4 °F71.6 °F94 %29.87 in8.0 miSE (140°)3.5 mphRainLight Rain
9:16 PM75.2 °F71.6 °F89 %29.87 in9.0 miCalmRainLight Rain
9:55 PM75.2 °F71.8 °F89 %29.86 in10.0 miCalm0.08 inRainLight Rain
10:11 PM75.2 °F73.4 °F94 %29.86 in7.0 miCalmRainLight Rain
10:13 PM75.2 °F73.4 °F94 %29.86 in7.0 miCalmRainLight Rain
10:55 PM75.0 °F72.9 °F93 %29.84 in5.0 miCalm0.14 inRainRain
11:26 PM75.2 °F73.4 °F94 %29.84 in10.0 miCalmRainLight Rain
11:32 PM75.2 °F73.4 °F94 %29.84 in10.0 miCalmRainLight Rain
11:47 PM75.2 °F73.4 °F94 %29.83 in10.0 miCalmRainLight Rain
11:55 PM74.5 °F73.2 °F96 %29.83 in10.0 miCalm0.07 inRainLight Rain
Hourly data recorded from PGUA, located miles away from Achang Bay, Guam







STORIES FROM OUR PARTNERS